STARLINK-30446, 57872

Orbit data source: Space-Track

STARLINK-30446, 57872 is a payload satellite owned by SpaceX/Seattle (US) in LEO that was launched on Sat, 16 Sep 2023 UTC via an FALCON 9 launch vehicle from the Air Force Eastern Test Range (AFETR). Payload-class satellites include a variety of spacecraft equipped with specific instruments for various scientific and technological missions. These include communications satellites like Starlink; space stations such as the ISS; scientific satellites like the Hubble; Earth observation satellites from companies like Planet Labs, Umbra, and HawkEye 360; GPS; miniature CubeSats for education and research; and military/defense satellites.

Loading next visibility...
Identifier
57872, 2023-144J
Orbit
LEO
Country
Flag of USUS
Related business
Manufacturer
SpaceX/Seattle
Mission
Operational Commercial Communications
Bus & Motor
STARLINK V2M, Unknown motor
Mass
730 kg wet, ~700 kg dry
Launch date (UTC)
2023-09-16 (2 years ago)
Launch vehicle
FALCON 9
Launch site
Air Force Eastern Test Range (AFETR)
Object type
Payload
Rocket body
Debris
Shape & HBR
Box + 2 Pan, 17.7 m
Radar Cross Section
33.884 m², Large (>1 m²)

Expand to show TLE details & history
Last TLE update: 1 day ago

TLE from 1 day ago
0 STARLINK-30446
1 57872U 23144J   25348.39210091 -.00004176  00000-0 -29431-3 0  9992
2 57872  43.0032  17.8354 0001567 272.6909  87.3754 15.02530934124660
Epoch: 2025-12-14T09:24Z
TLE epoch observation values (Epoch: 2025-12-14T09:24:37.518Z)
Latitude
-0.00002°
Longitude
153.37337°
Altitude
558.824 km
Speed
7.584 km/s
True Right ascension
01h 11m 20s
True Declination
0° 00' 00"
Sunlit
Object was in full shadow at epoch
Visualization orbit readout
Latitude
Unknown
Longitude
Unknown
Altitude
Unknown
Speed
Unknown
Apparent Right ascension
Unknown
Apparent Declination
Unknown
Sunlit
N/A
Visualization observer readout
Local Sidereal Time
13:23:51
Azimuth
Unknown
Elevation
Unknown
Doppler factor
Unknown
Orbital elements
Apogee altitude
562.106 km
Perigee altitude
559.931 km
Semi-major axis
6,939.156 km
Eccentricity
0.00016
Inclination
43.0032°
RAAN
17.8354°
Arg. of periapsis
272.6909°
True anomaly
87.39334°
Mean anomaly
87.3754°
Eccentric anomaly
87.38437°
Mean motion
3.75477 °/min
Orbital period
95.88 mins
BSTAR
-0.00029431
Loading maneuver chart data...
Computing Atmospheric mass density...
Loading historical data...
Loading historical data...
Loading historical data...
Loading historical data...
Loading historical data...
Loading historical data...
Loading historical data...

Documentation

Showing up to 5 results
|